{"data":{"norad_id":50845,"epoch":"2026-09-19T22:08:51.767232Z","epoch_age_seconds":98103,"freshness":"FRESH","line1":"1 50845U 22001AU  26262.92282138  .00007142  00000+0  24184-3 0  9995","line2":"2 50845  53.1623  13.1845 0001215  96.0744 264.0396 15.31681601259788","mean_motion":15.31681601,"eccentricity":0.0001215,"inclination_deg":53.1623,"raan_deg":13.1845,"arg_perigee_deg":96.0744,"mean_anomaly_deg":264.0396,"bstar":0.00024184,"rev_number":25978,"period_min":94.014317274547,"perigee_km":469.96269701743,"apogee_km":471.6269874551,"semimajor_km":6848.9318422363,"source":"CELESTRAK","updated_at":"2026-09-20T09:00:39.582502Z"}}